Wind_Speed
5 6 7 6 6 7 8 9 9 9 10 10 10 11 11 11 11 11 12 12 12 13 14 14 14 15 15 15 15 16 16 16 17 18 18 18 19 18 18 18 18 18 18
6 6 7 7 7 7 8 9 9 9 10 10 11 11 11 11 11 12 12 12 12 13 13 14 14 14 15 14 14 15 15 16 17 18 18 18 18 18 19 19 19 19 19
7 7 7 7 7 7 8 9 9 9 9 10 10 11 11 12 12 12 11 12 12 12 12 13 14 14 14 14 14 15 16 16 16 16 17 17 17 18 18 18 18 19 19
8 8 8 8 8 8 8 9 9 9 9 10 10 11 11 12 12 11 12 12 12 12 12 13 13 13 13 14 14 15 15 15 15 16 17 17 17 17 18 18 18 18 19
9 9 9 9 9 9 9 9 9 9 9 9 10 10 11 11 11 11 12 13 13 13 12 13 13 13 13 13 14 14 15 15 15 15 15 16 17 17 18 19 18 19 19
9 9 9 9 9 9 9 9 9 9 9 9 9 9 10 10 11 11 11 12 12 13 13 13 13 13 14 14 14 15 15 15 14 14 15 16 16 17 18 18 18 18 18
10 10 10 10 10 9 10 9 9 9 8 9 9 9 10 10 11 12 12 12 13 13 13 12 13 13 14 14 14 14 14 14 15 15 15 15 15 14 15 16 17 17 18
11 11 11 10 10 9 10 10 9 9 9 9 9 9 10 10 10 11 11 12 12 12 12 12 12 12 13 13 13 14 14 14 15 14 14 14 14 13 13 14 15 17 17
12 12 11 11 11 10 10 10 10 10 10 10 9 9 10 10 10 10 10 11 11 11 11 11 12 12 12 12 13 13 13 14 14 13 13 13 13 13 13 14 15 15 17
12 12 12 12 11 11 11 11 11 10 10 10 10 10 10 10 10 10 11 11 11 11 11 11 12 12 12 12 12 12 13 13 14 14 14 13 13 13 13 14 14 15 15
13 13 13 13 12 12 11 11 11 12 12 12 11 11 12 11 11 11 11 10 10 10 10 11 11 12 12 12 12 12 12 13 14 14 13 13 12 13 14 13 13 14 14
13 13 13 13 13 13 13 12 12 13 13 12 12 12 12 12 12 11 11 11 11 11 11 11 12 12 12 12 12 12 13 14 14 15 14 14 14 14 14 14 15 15 15
14 14 13 13 14 14 13 13 14 13 13 13 13 13 13 13 12 12 11 12 12 12 12 13 12 12 13 12 13 13 13 14 15 15 14 14 13 14 14 14 14 15 15
15 14 14 14 14 15 14 14 14 14 14 14 14 15 15 14 14 14 13 13 13 13 13 14 14 13 13 13 14 14 14 15 15 15 15 15 14 14 14 14 14 14 15
15 15 15 15 15 15 15 15 16 15 15 16 16 16 16 16 15 15 15 15 15 14 14 14 14 14 14 14 14 14 15 15 15 15 16 16 15 15 14 14 15 15 15
17 16 16 16 16 16 16 16 16 16 17 17 17 17 17 17 17 17 16 17 17 16 15 15 15 15 15 15 15 16 16 16 16 16 16 16 15 15 15 15 15 16 16
18 18 18 17 17 17 17 17 17 17 17 17 17 17 18 18 19 18 18 18 18 18 17 17 17 17 17 16 16 17 16 16 16 17 17 17 17 16 16 16 16 16 17
20 20 19 19 19 18 18 18 18 18 18 18 18 19 19 19 20 20 19 19 19 19 18 18 18 18 18 18 18 18 18 18 18 18 18 18 18 17 17 17 17 17 17
21 21 20 20 19 19 19 19 19 20 20 20 20 20 21 21 21 21 20 20 20 20 20 20 20 20 19 19 19 19 18 18 18 18 19 19 19 18 18 19 18 18 18
22 22 21 21 21 21 21 21 21 21 21 21 22 22 22 22 22 21 21 21 21 21 21 21 21 21 21 20 19 19 19 18 18 19 19 20 20 20 20 19 19 19 19
23 23 23 22 22 22 22 22 22 22 22 22 23 24 24 23 23 22 22 22 22 22 22 22 22 22 21 21 20 20 19 19 19 20 20 20 20 20 20 20 20 20 20
25 24 24 24 24 24 23 23 23 23 23 23 24 25 25 25 24 23 23 23 23 23 23 22 22 22 22 21 21 20 20 20 20 20 21 21 21 20 21 21 20 20 21
26 26 25 25 25 25 25 24 24 24 24 25 25 25 26 25 24 24 24 23 24 24 23 23 23 23 23 22 22 22 22 22 21 21 21 21 21 21 21 20 20 21 21
26 26 26 26 26 26 26 26 26 26 26 26 25 25 25 26 26 26 25 24 24 24 24 24 24 23 23 23 23 23 23 23 23 23 23 22 22 22 21 21 20 20 21
27 27 27 27 27 28 27 27 27 26 26 26 26 26 26 26 26 26 26 25 25 25 25 25 24 24 24 24 24 24 24 24 24 24 24 24 23 23 23 22 22 22 23
28 27 27 27 27 27 27 27 26 26 26 26 26 26 26 26 26 26 26 26 26 26 26 26 26 25 26 26 26 26 26 26 26 25 25 25 25 25 24 24 24 24 24
Wind_Direction
304 299 295 289 278 272 272 276 276 275 277 275 271 271 271 271 271 270 269 268 268 263 260 259 259 260 258 258 259 259 260 262 263 264 263 262 263 264 263 263 264 263 262
308 303 300 295 285 279 277 281 282 279 277 275 274 272 270 272 272 271 270 270 269 267 263 260 260 258 259 261 262 261 263 264 265 266 265 265 264 262 262 262 262 263 263
309 305 300 296 291 288 284 283 285 284 280 276 275 272 272 272 270 269 269 269 269 267 264 261 261 262 263 262 263 264 264 265 268 267 267 266 265 262 263 261 262 263 263
310 307 303 297 293 291 290 288 290 290 289 284 282 280 277 275 272 270 269 270 268 267 266 263 262 262 262 263 266 267 266 267 268 271 270 268 266 264 262 261 261 262 264
308 307 305 301 295 291 288 289 291 292 292 289 286 284 280 278 273 272 269 270 269 267 267 265 263 264 265 266 268 267 266 266 269 271 270 269 268 268 264 262 261 262 263
310 307 306 303 300 293 289 289 292 294 293 290 289 286 281 281 278 276 273 272 269 267 268 265 264 264 265 267 268 268 265 267 269 270 271 273 270 269 266 263 261 262 264
311 308 306 302 298 294 289 289 290 293 292 292 291 289 286 283 280 279 276 274 272 272 270 266 263 264 266 268 269 269 267 268 271 273 272 275 274 270 269 262 260 262 264
306 307 305 300 294 291 288 285 284 286 288 290 291 291 289 286 284 281 279 276 273 272 269 266 265 266 266 268 270 270 270 269 272 272 273 276 275 269 267 263 261 264 266
305 304 303 300 295 288 284 282 280 280 283 287 287 289 289 286 287 286 283 278 272 268 266 266 266 267 267 268 269 270 269 270 272 273 273 275 277 270 264 266 267 268 269
302 301 298 294 292 289 285 280 278 277 280 283 284 285 287 286 286 287 283 279 274 271 271 268 268 268 267 270 269 268 267 266 269 273 273 272 273 272 269 264 266 269 270
300 299 296 292 289 286 285 283 278 276 278 281 283 284 286 288 285 285 285 280 276 275 276 274 272 270 270 269 268 266 265 267 269 273 272 270 273 275 275 275 272 272 274
299 298 295 290 288 287 284 282 279 278 278 280 282 283 284 286 285 284 284 282 279 276 275 273 270 269 268 268 267 267 268 268 271 272 273 271 273 274 274 278 277 276 277
297 295 294 290 289 286 284 281 281 278 277 278 278 281 282 282 280 283 281 281 279 277 275 271 269 268 268 267 265 265 269 269 271 272 271 272 274 273 275 277 277 279 280
295 294 293 292 290 288 284 282 281 279 276 276 275 277 280 279 277 279 279 278 276 273 274 275 274 271 268 267 265 264 267 269 270 269 270 270 270 269 273 277 278 280 282
295 295 294 292 292 290 286 282 280 279 277 277 276 277 278 278 278 278 276 275 276 275 275 276 276 274 271 269 267 268 268 268 268 268 269 270 270 271 274 279 279 280 283
292 293 294 291 290 288 285 283 282 278 275 274 274 276 278 278 276 276 276 276 276 277 275 273 273 273 272 270 268 268 272 272 271 269 268 268 270 274 277 280 281 282 284
290 289 290 289 287 286 283 282 280 277 275 274 275 276 276 277 277 275 275 275 275 276 275 274 273 272 273 272 269 269 271 272 271 270 269 271 273 274 276 279 282 284 283
290 288 287 287 286 283 281 282 279 278 277 277 277 277 276 276 277 275 274 274 274 274 274 273 272 272 272 271 269 268 270 271 271 271 271 272 274 275 277 279 280 281 282
288 289 287 286 284 282 281 280 279 277 276 278 279 278 277 277 277 275 274 275 274 273 273 273 273 271 273 272 270 270 270 271 271 271 270 272 274 277 279 279 280 279 280
286 286 287 285 283 281 280 278 277 275 275 276 278 278 278 277 277 276 276 274 273 273 272 272 272 272 273 272 272 270 269 270 272 273 273 272 274 276 279 280 280 279 279
285 284 285 284 283 281 279 277 275 274 275 276 277 278 277 276 276 275 275 275 274 273 272 271 271 273 273 272 272 270 268 270 271 273 274 275 277 278 280 280 281 280 280
283 283 283 283 281 279 279 277 275 274 274 276 278 277 277 276 275 274 274 274 273 272 272 272 272 272 271 270 270 270 270 271 272 274 276 277 276 277 279 280 280 280 279
284 283 282 281 280 279 278 278 276 275 275 277 277 276 276 275 274 274 273 274 274 272 271 272 272 271 268 268 269 270 271 273 274 274 275 275 275 275 278 279 279 279 279
284 283 280 279 279 278 278 277 277 275 276 277 277 276 275 274 273 272 271 272 273 273 271 272 272 271 268 268 269 269 270 272 274 275 274 273 273 274 276 276 276 278 278
284 283 280 280 278 277 277 278 278 276 277 277 276 276 274 273 273 273 272 272 272 272 273 274 273 270 268 269 269 269 270 271 273 274 275 274 273 272 274 274 275 277 279
282 282 281 279 280 277 277 279 279 278 277 276 275 275 274 274 273 273 273 273 272 272 272 273 273 271 269 269 270 270 270 271 272 272 274 274 273 272 273 273 274 277 279
Height
5840 5840 5839 5839 5839 5838 5838 5838 5838 5838 5838 5838 5837 5837 5837 5837 5837 5837 5837 5838 5838 5838 5838 5838 5839 5839 5840 5840 5841 5841 5842 5842 5843 5843 5844 5844 5845 5845 5845 5846 5847 5847 5848
5839 5838 5838 5837 5837 5837 5836 5836 5836 5836 5836 5835 5835 5835 5835 5835 5835 5835 5834 5835 5834 5834 5835 5835 5835 5836 5836 5837 5837 5838 5838 5838 5839 5839 5840 5840 5840 5841 5841 5842 5843 5843 5843
5837 5837 5836 5836 5835 5835 5834 5834 5834 5833 5833 5833 5833 5832 5832 5832 5832 5832 5832 5831 5831 5832 5832 5832 5832 5833 5833 5833 5834 5834 5834 5834 5835 5835 5836 5836 5836 5837 5837 5837 5838 5838 5839
5836 5835 5834 5834 5833 5832 5832 5832 5832 5831 5830 5830 5830 5829 5829 5829 5828 5829 5829 5828 5828 5829 5829 5829 5829 5830 5830 5830 5830 5830 5831 5831 5831 5831 5832 5831 5832 5832 5832 5833 5833 5834 5834
5834 5833 5832 5831 5831 5830 5830 5830 5829 5829 5828 5827 5827 5827 5826 5826 5825 5825 5825 5825 5825 5825 5825 5826 5826 5826 5827 5827 5827 5827 5827 5827 5827 5827 5827 5827 5827 5827 5827 5828 5828 5829 5829
5832 5831 5830 5829 5829 5828 5828 5827 5827 5826 5825 5825 5824 5824 5823 5823 5823 5822 5822 5822 5822 5822 5822 5822 5822 5823 5823 5823 5823 5824 5824 5824 5823 5824 5823 5823 5822 5822 5821 5822 5823 5824 5825
5830 5829 5828 5827 5826 5826 5825 5825 5824 5824 5823 5822 5822 5821 5821 5820 5820 5820 5819 5819 5819 5818 5818 5819 5819 5819 5820 5820 5820 5820 5820 5820 5820 5820 5819 5819 5818 5817 5815 5815 5818 5819 5820
5828 5827 5826 5825 5824 5823 5823 5822 5822 5821 5821 5820 5820 5819 5818 5818 5817 5817 5816 5816 5815 5815 5815 5815 5816 5816 5816 5817 5817 5817 5817 5817 5817 5816 5816 5815 5814 5813 5813 5812 5814 5815 5815
5826 5824 5823 5822 5821 5821 5820 5819 5819 5819 5818 5818 5817 5817 5816 5815 5815 5814 5813 5813 5812 5812 5812 5812 5812 5813 5813 5813 5813 5813 5813 5813 5813 5813 5813 5812 5811 5810 5810 5810 5810 5811 5811
5823 5822 5821 5820 5819 5818 5817 5817 5816 5816 5816 5815 5815 5814 5814 5813 5812 5812 5811 5810 5809 5809 5809 5809 5809 5809 5809 5810 5810 5810 5810 5810 5810 5810 5809 5809 5808 5807 5807 5806 5807 5807 5807
5820 5818 5817 5817 5816 5815 5814 5814 5813 5813 5813 5812 5812 5811 5810 5810 5809 5809 5808 5808 5807 5806 5806 5806 5806 5806 5806 5806 5806 5806 5806 5806 5807 5806 5806 5806 5805 5804 5804 5803 5803 5803 5802
5816 5815 5814 5813 5812 5812 5811 5810 5809 5809 5809 5809 5808 5808 5807 5807 5807 5806 5805 5805 5804 5804 5803 5803 5803 5803 5803 5802 5802 5803 5803 5803 5803 5803 5802 5802 5801 5801 5801 5800 5800 5799 5799
5813 5812 5810 5809 5809 5808 5807 5806 5806 5805 5805 5805 5805 5805 5804 5804 5803 5803 5802 5802 5802 5801 5801 5800 5799 5799 5799 5799 5799 5799 5799 5799 5799 5799 5799 5799 5798 5798 5797 5797 5796 5796 5795
5809 5808 5807 5806 5805 5804 5803 5802 5802 5801 5801 5801 5801 5801 5800 5800 5799 5799 5799 5799 5798 5798 5797 5797 5796 5796 5795 5795 5795 5795 5795 5796 5795 5795 5795 5795 5795 5794 5794 5793 5793 5792 5792
5805 5804 5803 5802 5800 5799 5798 5798 5797 5797 5797 5797 5796 5796 5796 5796 5795 5795 5795 5795 5795 5794 5794 5793 5792 5792 5791 5791 5791 5791 5791 5791 5791 5791 5791 5791 5791 5790 5790 5790 5789 5788 5787
5801 5800 5799 5797 5796 5795 5794 5793 5793 5793 5793 5792 5792 5792 5791 5791 5791 5790 5790 5790 5790 5790 5789 5789 5788 5788 5788 5787 5787 5787 5787 5787 5787 5787 5787 5787 5787 5786 5786 5785 5785 5784 5783
5797 5795 5794 5793 5792 5791 5790 5789 5788 5788 5788 5788 5787 5787 5787 5786 5786 5785 5785 5785 5784 5784 5784 5784 5784 5783 5783 5783 5783 5782 5782 5782 5782 5782 5782 5782 5782 5782 5782 5781 5780 5779 5778
5792 5790 5789 5788 5787 5786 5785 5784 5783 5783 5783 5783 5782 5782 5782 5781 5780 5780 5780 5779 5779 5779 5779 5779 5779 5779 5778 5778 5778 5777 5777 5777 5777 5777 5777 5777 5777 5777 5777 5776 5775 5774 5773
5786 5785 5784 5782 5781 5780 5779 5779 5778 5778 5778 5777 5777 5776 5776 5775 5775 5774 5774 5774 5773 5773 5773 5773 5773 5773 5773 5773 5772 5772 5772 5772 5772 5771 5771 5772 5772 5772 5771 5771 5770 5769 5768
5780 5779 5778 5777 5776 5774 5774 5773 5773 5772 5772 5771 5771 5770 5770 5769 5769 5768 5768 5768 5768 5768 5768 5768 5768 5767 5767 5767 5766 5766 5766 5767 5767 5766 5766 5766 5766 5766 5765 5765 5764 5763 5762
5774 5773 5771 5770 5769 5768 5767 5767 5766 5766 5765 5765 5764 5764 5763 5763 5762 5762 5762 5761 5761 5761 5761 5761 5761 5761 5761 5761 5761 5761 5761 5761 5761 5761 5760 5760 5760 5760 5759 5759 5758 5757 5756
5766 5765 5764 5764 5763 5762 5761 5760 5760 5759 5759 5758 5758 5757 5756 5756 5755 5755 5755 5755 5755 5755 5755 5755 5755 5755 5755 5755 5755 5755 5755 5755 5755 5756 5755 5754 5754 5754 5753 5753 5752 5751 5750
5759 5758 5757 5756 5755 5755 5754 5753 5753 5752 5752 5751 5750 5750 5749 5749 5748 5748 5748 5748 5748 5747 5748 5748 5748 5748 5748 5748 5749 5749 5749 5749 5749 5749 5748 5748 5748 5748 5747 5746 5746 5745 5744
5751 5750 5749 5748 5748 5747 5747 5746 5745 5745 5744 5743 5743 5742 5742 5741 5741 5741 5741 5741 5741 5741 5740 5741 5741 5741 5741 5742 5742 5742 5742 5742 5742 5742 5741 5742 5741 5741 5740 5740 5739 5738 5737
5743 5742 5741 5740 5740 5739 5739 5738 5737 5737 5736 5735 5735 5734 5734 5734 5734 5733 5733 5734 5734 5733 5733 5733 5733 5733 5733 5734 5734 5735 5735 5734 5735 5734 5734 5734 5734 5733 5733 5733 5732 5731 5730
5735 5734 5733 5733 5732 5731 5731 5730 5729 5729 5728 5727 5727 5726 5726 5726 5726 5726 5726 5726 5726 5726 5726 5725 5725 5725 5725 5726 5726 5726 5726 5726 5726 5726 5726 5726 5725 5725 5725 5725 5725 5724 5723